| time (UTC) | temp C | wind direction | speed KPH | gust KPH | rain 1hr cm | rain 24hr cm | rain mn cm | humidity % | barometer mb |
| 20260507032217 | 16 | 0.0 | 0.0 | 0.00 | 0.00 | 0.00 | 64 | 1011.3 | |
| 20260507031216 | 16 | 0 | 1.6 | 3.2 | 0.00 | 0.00 | 0.00 | 65 | 1011.3 |
| 20260507030216 | 16 | 0.0 | 0.0 | 0.00 | 0.00 | 0.00 | 65 | 1011.3 | |
| 20260507025217 | 16 | 0.0 | 1.6 | 0.00 | 0.00 | 0.00 | 65 | 1011.4 | |
| 20260507024217 | 16 | 0.0 | 1.6 | 0.00 | 0.00 | 0.00 | 65 | 1011.3 | |
| 20260507023216 | 16 | 0.0 | 0.0 | 0.00 | 0.00 | 0.00 | 66 | 1011.3 | |
| 20260507022216 | 16 | 0 | 3.2 | 3.2 | 0.00 | 0.00 | 0.00 | 66 | 1011.2 |
| 20260507021217 | 16 | 0 | 3.2 | 4.8 | 0.00 | 0.00 | 0.00 | 66 | 1011.3 |
| 20260507020216 | 16 | 0.0 | 1.6 | 0.00 | 0.00 | 0.00 | 65 | 1011.3 | |
| 20260507015217 | 16 | 270 | 3.2 | 4.8 | 0.00 | 0.00 | 0.00 | 63 | 1011.3 |
| 20260507014217 | 16 | 270 | 1.6 | 3.2 | 0.00 | 0.00 | 0.00 | 63 | 1011.4 |
| 20260507013216 | 16 | 0.0 | 1.6 | 0.00 | 0.00 | 0.00 | 64 | 1011.4 | |
| 20260507012216 | 16 | 0.0 | 0.0 | 0.00 | 0.00 | 0.00 | 67 | 1011.4 | |
| 20260507011216 | 17 | 0.0 | 1.6 | 0.00 | 0.00 | 0.00 | 68 | 1011.6 | |
| 20260507010216 | 17 | 0.0 | 0.0 | 0.00 | 0.00 | 0.00 | 67 | 1011.6 | |
| 20260507005238 | 17 | 270 | 3.2 | 3.2 | 0.00 | 0.00 | 0.00 | 67 | 1011.6 |
| 20260507004217 | 17 | 270 | 1.6 | 1.6 | 0.00 | 0.00 | 0.00 | 66 | 1011.6 |
| 20260507003217 | 16 | 23 | 3.2 | 4.8 | 0.00 | 0.00 | 0.00 | 64 | 1011.7 |
| 20260507002216 | 16 | 0.0 | 1.6 | 0.00 | 0.00 | 0.00 | 64 | 1011.8 | |
| 20260507001216 | 16 | 23 | 3.2 | 6.4 | 0.00 | 0.00 | 0.00 | 64 | 1011.8 |
| 20260507000219 | 17 | 45 | 6.4 | 9.7 | 0.00 | 0.00 | 0.00 | 64 | 1011.9 |
| 20260506235237 | 17 | 68 | 8.0 | 12.9 | 0.00 | 0.00 | 0.00 | 65 | 1011.9 |
| 20260506234215 | 17 | 90 | 6.4 | 9.7 | 0.00 | 0.00 | 0.00 | 66 | 1012.1 |
| 20260506233217 | 17 | 113 | 3.2 | 4.8 | 0.00 | 0.00 | 0.00 | 64 | 1012.3 |
| 20260506232237 | 17 | 158 | 1.6 | 3.2 | 0.00 | 0.00 | 0.00 | 62 | 1012.3 |
| 20260506231216 | 17 | 135 | 1.6 | 3.2 | 0.00 | 0.00 | 0.00 | 61 | 1012.2 |
| 20260506230236 | 17 | 135 | 4.8 | 9.7 | 0.00 | 0.00 | 0.00 | 59 | 1012.3 |
| 20260506225216 | 17 | 113 | 4.8 | 11.3 | 0.00 | 0.00 | 0.00 | 57 | 1012.2 |
| 20260506224216 | 17 | 113 | 3.2 | 9.7 | 0.00 | 0.00 | 0.00 | 55 | 1012.3 |
| 20260506223215 | 17 | 158 | 8.0 | 19.3 | 0.00 | 0.00 | 0.00 | 54 | 1012.2 |
| 20260506222216 | 17 | 90 | 6.4 | 9.7 | 0.00 | 0.00 | 0.00 | 54 | 1012.2 |
| 20260506221216 | 17 | 135 | 6.4 | 11.3 | 0.00 | 0.00 | 0.00 | 56 | 1012.1 |
| 20260506220217 | 17 | 135 | 1.6 | 3.2 | 0.00 | 0.00 | 0.00 | 60 | 1012.1 |
| 20260506215216 | 17 | 113 | 1.6 | 6.4 | 0.00 | 0.00 | 0.00 | 63 | 1012.1 |
| 20260506214216 | 17 | 158 | 6.4 | 11.3 | 0.00 | 0.00 | 0.00 | 66 | 1012.1 |
| 20260506213238 | 17 | 135 | 3.2 | 4.8 | 0.00 | 0.00 | 0.00 | 75 | 1012.0 |
| 20260506212217 | 17 | 135 | 6.4 | 16.1 | 0.00 | 0.00 | 0.00 | 77 | 1012.1 |
| 20260506211217 | 17 | 113 | 6.4 | 14.5 | 0.00 | 0.00 | 0.00 | 78 | 1012.0 |
| 20260506210217 | 17 | 158 | 4.8 | 9.7 | 0.00 | 0.00 | 0.00 | 77 | 1011.8 |
| 20260506205216 | 18 | 90 | 6.4 | 12.9 | 0.00 | 0.00 | 0.00 | 77 | 1011.9 |
| 20260506204216 | 18 | 113 | 4.8 | 17.7 | 0.00 | 0.00 | 0.00 | 76 | 1011.8 |
| 20260506203216 | 17 | 158 | 8.0 | 14.5 | 0.00 | 0.00 | 0.00 | 75 | 1011.6 |
| 20260506202258 | 18 | 158 | 12.9 | 20.9 | 0.00 | 0.00 | 0.00 | 77 | 1011.5 |
| 20260506201236 | 18 | 135 | 8.0 | 12.9 | 0.00 | 0.00 | 0.00 | 77 | 1011.4 |
| 20260506200237 | 18 | 90 | 3.2 | 8.0 | 0.00 | 0.00 | 0.00 | 77 | 1011.2 |
| 20260506195216 | 18 | 113 | 1.6 | 4.8 | 0.00 | 0.00 | 0.00 | 77 | 1011.0 |
| 20260506194236 | 18 | 135 | 6.4 | 12.9 | 0.00 | 0.00 | 0.00 | 77 | 1011.0 |
| 20260506193216 | 18 | 113 | 11.3 | 20.9 | 0.00 | 0.00 | 0.00 | 75 | 1010.7 |
| 20260506192216 | 19 | 113 | 9.7 | 16.1 | 0.00 | 0.00 | 0.00 | 73 | 1010.7 |
| 20260506191216 | 20 | 135 | 4.8 | 12.9 | 0.00 | 0.00 | 0.00 | 69 | 1010.5 |
| 20260506190216 | 20 | 135 | 4.8 | 9.7 | 0.00 | 0.00 | 0.00 | 64 | 1010.5 |
| 20260506185216 | 20 | 113 | 9.7 | 17.7 | 0.00 | 0.00 | 0.00 | 62 | 1010.2 |
| 20260506184236 | 21 | 90 | 6.4 | 14.5 | 0.00 | 0.00 | 0.00 | 59 | 1010.1 |
| 20260506183216 | 21 | 135 | 6.4 | 9.7 | 0.00 | 0.00 | 0.00 | 59 | 1010.0 |
| 20260506182237 | 21 | 113 | 4.8 | 9.7 | 0.00 | 0.00 | 0.00 | 59 | 1009.9 |
| 20260506181216 | 22 | 90 | 6.4 | 14.5 | 0.00 | 0.00 | 0.00 | 56 | 1010.0 |
| 20260506180257 | 22 | 90 | 3.2 | 6.4 | 0.00 | 0.00 | 0.00 | 55 | 1010.1 |
| 20260506175216 | 22 | 90 | 8.0 | 14.5 | 0.00 | 0.00 | 0.00 | 55 | 1010.2 |
| 20260506174236 | 22 | 135 | 4.8 | 8.0 | 0.00 | 0.00 | 0.00 | 57 | 1010.3 |
| 20260506173216 | 22 | 90 | 1.6 | 6.4 | 0.00 | 0.00 | 0.00 | 59 | 1010.2 |
| 20260506172236 | 22 | 113 | 1.6 | 6.4 | 0.00 | 0.00 | 0.00 | 59 | 1010.4 |
| 20260506171216 | 22 | 90 | 3.2 | 9.7 | 0.00 | 0.00 | 0.00 | 58 | 1010.5 |
| 20260506170216 | 22 | 113 | 4.8 | 8.0 | 0.00 | 0.00 | 0.00 | 56 | 1010.5 |
| 20260506165216 | 22 | 90 | 6.4 | 14.5 | 0.00 | 0.00 | 0.00 | 53 | 1010.5 |
| 20260506164216 | 23 | 135 | 1.6 | 3.2 | 0.00 | 0.00 | 0.00 | 55 | 1010.5 |
| 20260506163216 | 23 | 90 | 8.0 | 12.9 | 0.00 | 0.00 | 0.00 | 55 | 1010.3 |
| 20260506162216 | 23 | 158 | 3.2 | 6.4 | 0.00 | 0.00 | 0.00 | 52 | 1010.5 |
| 20260506161216 | 24 | 90 | 4.8 | 11.3 | 0.00 | 0.00 | 0.00 | 51 | 1010.5 |
| 20260506160217 | 24 | 113 | 4.8 | 9.7 | 0.00 | 0.00 | 0.00 | 50 | 1010.6 |
| 20260506155216 | 24 | 90 | 9.7 | 14.5 | 0.00 | 0.00 | 0.00 | 49 | 1010.5 |
| 20260506154216 | 25 | 113 | 3.2 | 9.7 | 0.00 | 0.00 | 0.00 | 38 | 1010.5 |
| 20260506153215 | 25 | 158 | 4.8 | 8.0 | 0.00 | 0.00 | 0.00 | 45 | 1010.6 |
| 20260506152217 | 25 | 45 | 4.8 | 11.3 | 0.00 | 0.00 | 0.00 | 43 | 1010.6 |
| 20260506151236 | 25 | 180 | 1.6 | 4.8 | 0.00 | 0.00 | 0.00 | 40 | 1010.5 |
| 20260506150219 | 25 | 135 | 1.6 | 4.8 | 0.00 | 0.00 | 0.00 | 38 | 1010.8 |
| 20260506145216 | 25 | 180 | 6.4 | 16.1 | 0.00 | 0.00 | 0.00 | 38 | 1010.9 |
| 20260506144216 | 26 | 158 | 6.4 | 11.3 | 0.00 | 0.00 | 0.00 | 33 | 1011.2 |
| 20260506143235 | 26 | 158 | 8.0 | 12.9 | 0.00 | 0.00 | 0.00 | 30 | 1011.3 |
| 20260506142237 | 26 | 158 | 6.4 | 11.3 | 0.00 | 0.00 | 0.00 | 28 | 1011.3 |
| 20260506141215 | 26 | 180 | 8.0 | 14.5 | 0.00 | 0.00 | 0.00 | 28 | 1011.3 |
| 20260506140236 | 26 | 158 | 9.7 | 14.5 | 0.00 | 0.00 | 0.00 | 28 | 1011.4 |
| 20260506135215 | 26 | 90 | 4.8 | 12.9 | 0.00 | 0.00 | 0.00 | 28 | 1011.4 |
| 20260506134218 | 26 | 135 | 3.2 | 9.7 | 0.00 | 0.00 | 0.00 | 30 | 1011.5 |
| 20260506133217 | 26 | 113 | 8.0 | 12.9 | 0.00 | 0.00 | 0.00 | 31 | 1011.3 |
| 20260506132217 | 25 | 135 | 4.8 | 11.3 | 0.00 | 0.00 | 0.00 | 31 | 1011.5 |
| 20260506131217 | 25 | 90 | 4.8 | 11.3 | 0.00 | 0.00 | 0.00 | 31 | 1011.5 |
| 20260506130217 | 25 | 180 | 9.7 | 17.7 | 0.00 | 0.00 | 0.00 | 32 | 1011.5 |
| 20260506125237 | 25 | 158 | 12.9 | 20.9 | 0.00 | 0.00 | 0.00 | 32 | 1011.6 |
| 20260506124217 | 25 | 135 | 6.4 | 9.7 | 0.00 | 0.00 | 0.00 | 33 | 1011.6 |
| 20260506123217 | 25 | 113 | 4.8 | 8.0 | 0.00 | 0.00 | 0.00 | 32 | 1011.6 |
| 20260506122217 | 25 | 158 | 8.0 | 20.9 | 0.00 | 0.00 | 0.00 | 33 | 1011.7 |
| 20260506121300 | 25 | 158 | 3.2 | 8.0 | 0.00 | 0.00 | 0.00 | 34 | 1011.8 |
| 20260506120218 | 24 | 68 | 4.8 | 16.1 | 0.00 | 0.00 | 0.00 | 34 | 1011.8 |
| 20260506115217 | 24 | 180 | 11.3 | 17.7 | 0.00 | 0.00 | 0.00 | 35 | 1011.9 |
| 20260506114217 | 24 | 158 | 4.8 | 8.0 | 0.00 | 0.00 | 0.00 | 38 | 1011.8 |
| 20260506113217 | 23 | 113 | 4.8 | 12.9 | 0.00 | 0.00 | 0.00 | 37 | 1011.8 |
| 20260506112217 | 23 | 90 | 4.8 | 11.3 | 0.00 | 0.00 | 0.00 | 39 | 1011.9 |
| 20260506111218 | 23 | 135 | 4.8 | 14.5 | 0.00 | 0.00 | 0.00 | 40 | 1011.8 |
| 20260506110217 | 23 | 90 | 6.4 | 12.9 | 0.00 | 0.00 | 0.00 | 41 | 1011.9 |
| 20260506105217 | 23 | 158 | 4.8 | 8.0 | 0.00 | 0.00 | 0.00 | 43 | 1011.8 |
| 20260506104217 | 22 | 158 | 12.9 | 17.7 | 0.00 | 0.00 | 0.00 | 44 | 1011.9 |
| 20260506103217 | 22 | 180 | 11.3 | 16.1 | 0.00 | 0.00 | 0.00 | 45 | 1012.0 |
| 20260506102218 | 22 | 180 | 4.8 | 8.0 | 0.00 | 0.00 | 0.00 | 45 | 1012.0 |
| 20260506101217 | 23 | 158 | 14.5 | 19.3 | 0.00 | 0.00 | 0.00 | 43 | 1011.9 |
| 20260506100217 | 23 | 113 | 3.2 | 8.0 | 0.00 | 0.00 | 0.00 | 42 | 1011.8 |
| 20260506095238 | 23 | 113 | 1.6 | 3.2 | 0.00 | 0.00 | 0.00 | 35 | 1011.8 |
| 20260506094217 | 22 | 225 | 1.6 | 3.2 | 0.00 | 0.00 | 0.00 | 38 | 1011.9 |
| 20260506093237 | 22 | 338 | 3.2 | 4.8 | 0.00 | 0.00 | 0.00 | 38 | 1011.9 |
| 20260506092218 | 21 | 248 | 1.6 | 3.2 | 0.00 | 0.00 | 0.00 | 42 | 1011.9 |
| 20260506091217 | 21 | 270 | 4.8 | 9.7 | 0.00 | 0.00 | 0.00 | 42 | 1011.9 |
| 20260506090216 | 20 | 270 | 4.8 | 8.0 | 0.00 | 0.00 | 0.00 | 44 | 1012.0 |
| 20260506085217 | 20 | 225 | 8.0 | 11.3 | 0.00 | 0.00 | 0.00 | 46 | 1011.8 |
| 20260506084236 | 20 | 225 | 9.7 | 14.5 | 0.00 | 0.00 | 0.00 | 46 | 1011.9 |
| 20260506083217 | 20 | 225 | 14.5 | 17.7 | 0.00 | 0.00 | 0.00 | 47 | 1011.9 |
| 20260506082217 | 19 | 270 | 8.0 | 12.9 | 0.00 | 0.00 | 0.00 | 48 | 1011.9 |
| 20260506081217 | 19 | 248 | 11.3 | 16.1 | 0.00 | 0.00 | 0.00 | 50 | 1011.8 |
| 20260506080218 | 18 | 270 | 8.0 | 16.1 | 0.00 | 0.00 | 0.00 | 51 | 1011.8 |
| 20260506073217 | 17 | 248 | 8.0 | 17.7 | 0.00 | 0.00 | 0.00 | 55 | 1011.7 |
| 20260506072238 | 17 | 270 | 8.0 | 11.3 | 0.00 | 0.00 | 0.00 | 56 | 1011.6 |
| 20260506071216 | 17 | 270 | 8.0 | 14.5 | 0.00 | 0.00 | 0.00 | 57 | 1011.6 |
| 20260506070218 | 17 | 270 | 9.7 | 16.1 | 0.00 | 0.00 | 0.00 | 58 | 1011.5 |
| 20260506062217 | 16 | 248 | 12.9 | 22.5 | 0.00 | 0.00 | 0.00 | 60 | 1011.7 |
| 20260506061218 | 15 | 248 | 11.3 | 16.1 | 0.00 | 0.00 | 0.00 | 61 | 1011.7 |
| 20260506060216 | 15 | 270 | 8.0 | 16.1 | 0.00 | 0.00 | 0.00 | 61 | 1011.6 |
| 20260506051216 | 15 | 248 | 11.3 | 16.1 | 0.00 | 0.00 | 0.00 | 61 | 1011.4 |
| 20260506050216 | 15 | 270 | 17.7 | 25.7 | 0.00 | 0.00 | 0.00 | 61 | 1011.2 |
| 20260506044239 | 15 | 248 | 12.9 | 17.7 | 0.00 | 0.00 | 0.00 | 61 | 1011.4 |
| 20260506043217 | 15 | 248 | 9.7 | 14.5 | 0.00 | 0.00 | 0.00 | 61 | 1011.2 |
| 20260506042216 | 15 | 270 | 8.0 | 12.9 | 0.00 | 0.00 | 0.00 | 61 | 1011.2 |
| 20260506041216 | 16 | 270 | 16.1 | 24.1 | 0.00 | 0.00 | 0.00 | 61 | 1011.5 |
| 20260506040237 | 16 | 270 | 16.1 | 24.1 | 0.00 | 0.00 | 0.00 | 60 | 1011.6 |
| 20260506035216 | 16 | 248 | 12.9 | 19.3 | 0.00 | 0.00 | 0.00 | 60 | 1011.4 |
| 20260506034216 | 16 | 248 | 14.5 | 24.1 | 0.00 | 0.00 | 0.00 | 60 | 1011.6 |
| 20260506033216 | 16 | 270 | 11.3 | 14.5 | 0.00 | 0.00 | 0.00 | 59 | 1011.6 |